#ZEITBEREICH: 11.05.2023 bis 11.05.2024
Datum;Zeit;BONN F AM1H [%];BONN NO AM1H [�g/m�];BONN NO2 AM1H [�g/m�];BONN PM10F GM24H [�g/m�];BONN T AM1H [�C];BONN WG SM1H [m/s];BONN WR VM1H [�]
11.05.2023;01:00;80,0;<7;<10;<10;12,0;2,6;247
11.05.2023;02:00;84,8;<7;<10;<10;11,5;1,3;170
11.05.2023;03:00;87,3;<7;<10;<10;11,4;0,9;154
11.05.2023;04:00;86,3;<7;<10;<10;11,3;1,4;235
11.05.2023;05:00;85,1;<7;<10;<10;11,4;0,8;235
11.05.2023;06:00;86,1;<7;<10;<10;11,2;1,7;220
11.05.2023;07:00;85,2;;;<10;11,6;1,3;221
11.05.2023;08:00;82,2;<7;12;<10;12,5;1,3;237
11.05.2023;09:00;81,8;<7;12;<10;12,9;1,5;280
11.05.2023;10:00;75,0;<7;12;<10;14,4;1,4;295
11.05.2023;11:00;67,4;<7;12;<10;15,4;1,3;299
11.05.2023;12:00;61,3;<7;11;<10;16,4;1,6;305
11.05.2023;13:00;68,1;<7;11;<10;15,8;3,8;301
11.05.2023;14:00;62,3;<7;11;<10;16,9;3,1;292
11.05.2023;15:00;61,1;<7;12;<10;17,3;2,9;301
11.05.2023;16:00;63,5;<7;12;<10;17,1;2,7;319
11.05.2023;17:00;66,8;<7;13;<10;16,6;2,5;339
11.05.2023;18:00;81,5;<7;13;<10;15,2;2,0;359
11.05.2023;19:00;87,0;<7;12;11;14,5;1,8;24
11.05.2023;20:00;88,9;<7;12;11;13,7;0,9;355
11.05.2023;21:00;93,1;<7;12;11;13,4;0,3;
11.05.2023;22:00;92,5;<7;12;12;13,6;1,3;271
11.05.2023;23:00;95,3;<7;12;12;13,3;1,5;285
11.05.2023;24:00;95,6;<7;11;13;13,0;1,7;280
12.05.2023;01:00;95,4;<7;<10;14;12,7;1,5;261
12.05.2023;02:00;95,8;<7;<10;14;12,5;1,8;247
12.05.2023;03:00;95,7;<7;<10;15;12,5;1,7;257
12.05.2023;04:00;96,3;<7;<10;15;12,4;1,1;223
12.05.2023;05:00;97,9;<7;<10;15;12,3;1,2;206
12.05.2023;06:00;96,0;<7;<10;15;12,4;2,7;88
12.05.2023;07:00;92,8;<7;11;15;12,6;2,7;86
12.05.2023;08:00;90,4;;;15;12,9;2,8;93
12.05.2023;09:00;82,5;<7;12;14;14,2;4,2;101
12.05.2023;10:00;73,8;;;14;15,6;3,8;100
12.05.2023;11:00;62,8;;;14;17,3;4,6;109
12.05.2023;12:00;56,6;;;14;18,0;4,3;103
12.05.2023;13:00;52,7;;;13;18,5;3,7;116
12.05.2023;14:00;51,6;<7;<10;13;19,2;2,5;98
12.05.2023;15:00;48,8;<7;<10;13;19,7;3,3;95
12.05.2023;16:00;47,2;<7;<10;12;20,0;2,9;112
12.05.2023;17:00;49,0;<7;<10;12;19,6;1,5;105
12.05.2023;18:00;52,2;<7;15;12;19,5;1,2;126
12.05.2023;19:00;53,8;<7;20;11;19,0;1,6;33
12.05.2023;20:00;60,5;<7;19;11;17,7;2,0;140
12.05.2023;21:00;74,8;<7;27;11;15,9;0,2;
12.05.2023;22:00;81,5;<7;37;11;15,1;0,8;305
12.05.2023;23:00;84,0;9;42;11;14,8;0,8;273
12.05.2023;24:00;85,9;<7;43;11;14,0;1,3;213
13.05.2023;01:00;88,9;<7;34;11;13,1;1,2;206
13.05.2023;02:00;89,9;<7;25;11;12,6;1,4;194
13.05.2023;03:00;88,4;<7;19;11;12,3;1,6;193
13.05.2023;04:00;90,9;<7;20;11;11,4;1,3;202
13.05.2023;05:00;95,8;<7;24;11;10,5;1,3;154
13.05.2023;06:00;96,4;20;23;12;10,2;0,6;212
13.05.2023;07:00;91,2;23;22;12;11,8;0,7;
13.05.2023;08:00;80,0;10;21;13;14,1;0,9;154
13.05.2023;09:00;72,0;12;24;14;16,2;0,9;
13.05.2023;10:00;63,6;8;19;15;18,1;1,2;79
13.05.2023;11:00;52,1;<7;10;15;19,9;1,6;64
13.05.2023;12:00;45,8;<7;<10;15;21,0;2,5;0
13.05.2023;13:00;64,6;<7;13;16;16,6;3,0;350
13.05.2023;14:00;74,3;;;16;15,9;3,2;225
13.05.2023;15:00;72,1;<7;13;16;15,8;3,6;225
13.05.2023;16:00;75,7;<7;16;16;15,5;3,4;359
13.05.2023;17:00;74,5;<7;23;16;15,6;2,7;72
13.05.2023;18:00;67,3;<7;18;16;16,1;2,9;15
13.05.2023;19:00;64,9;<7;26;16;17,7;0,5;
13.05.2023;20:00;76,9;<7;37;16;16,0;0,8;267
13.05.2023;21:00;88,6;14;56;16;14,2;1,0;250
13.05.2023;22:00;87,6;10;57;16;13,3;1,5;217
13.05.2023;23:00;89,2;<7;47;16;12,2;1,7;207
13.05.2023;24:00;94,5;9;45;16;11,0;1,2;187
14.05.2023;01:00;96,5;10;42;16;10,3;0,9;122
14.05.2023;02:00;97,8;32;36;16;9,6;0,4;
14.05.2023;03:00;98,4;20;29;16;8,9;0,6;
14.05.2023;04:00;98,4;14;25;16;8,3;1,1;174
14.05.2023;05:00;98,6;9;25;16;7,9;1,2;122
14.05.2023;06:00;99,6;12;29;17;8,7;0,6;
14.05.2023;07:00;99,9;15;27;17;9,4;0,5;
14.05.2023;08:00;87,8;14;20;16;12,1;0,8;96
14.05.2023;09:00;76,9;10;19;16;14,5;0,8;42
14.05.2023;10:00;61,8;<7;19;16;17,1;1,1;31
14.05.2023;11:00;55,3;<7;<10;15;18,5;1,5;48
14.05.2023;12:00;50,8;<7;<10;15;19,7;1,5;49
14.05.2023;13:00;50,1;<7;<10;15;19,4;1,5;333
14.05.2023;14:00;44,8;<7;<10;15;20,4;1,3;309
14.05.2023;15:00;40,7;;;15;21,2;2,3;343
14.05.2023;16:00;36,8;<7;12;16;21,8;2,2;338
14.05.2023;17:00;32,6;<7;<10;16;22,7;2,4;23
14.05.2023;18:00;41,5;<7;<10;16;21,0;2,1;41
14.05.2023;19:00;44,5;<7;<10;15;20,3;1,8;35
14.05.2023;20:00;48,9;<7;19;15;19,0;1,5;17
14.05.2023;21:00;53,2;<7;16;15;17,8;2,8;53
14.05.2023;22:00;59,8;<7;13;14;16,3;1,7;101
14.05.2023;23:00;65,7;<7;19;14;15,5;1,0;265
14.05.2023;24:00;77,1;<7;28;13;14,0;0,7;73
15.05.2023;01:00;81,8;<7;48;13;13,0;0,6;
15.05.2023;02:00;81,1;<7;25;13;12,9;1,5;261
15.05.2023;03:00;84,3;<7;11;13;13,1;1,8;269
15.05.2023;04:00;89,2;<7;<10;13;13,3;1,9;269
15.05.2023;05:00;89,9;<7;17;14;13,5;1,8;285
15.05.2023;06:00;86,6;<7;15;15;13,5;3,0;293
15.05.2023;07:00;85,6;9;21;16;13,3;2,5;304
15.05.2023;08:00;83,8;<7;20;16;13,1;2,8;290
15.05.2023;09:00;82,3;<7;20;17;12,8;3,3;298
15.05.2023;10:00;81,5;<7;16;18;12,7;3,2;278
15.05.2023;11:00;74,2;<7;19;19;14,3;2,4;319
15.05.2023;12:00;66,2;<7;20;20;16,3;2,2;349
15.05.2023;13:00;55,6;<7;24;22;18,4;3,0;322
15.05.2023;14:00;44,9;<7;18;22;19,8;3,8;331
15.05.2023;15:00;41,5;<7;17;23;20,3;4,5;306
15.05.2023;16:00;39,4;;;23;20,5;4,3;308
15.05.2023;17:00;48,0;<7;14;24;19,6;5,2;299
15.05.2023;18:00;54,4;<7;16;25;18,0;5,7;298
15.05.2023;19:00;61,3;<7;22;26;16,4;4,2;304
15.05.2023;20:00;72,3;<7;18;27;15,5;3,8;284
15.05.2023;21:00;84,2;<7;15;27;13,9;3,5;288
15.05.2023;22:00;77,3;<7;14;28;13,7;4,6;301
15.05.2023;23:00;75,5;<7;14;28;13,2;3,6;302
15.05.2023;24:00;75,9;<7;<10;28;12,6;3,5;290
16.05.2023;01:00;79,9;<7;<10;28;12,0;4,2;293
16.05.2023;02:00;86,7;<7;<10;28;11,1;3,8;286
16.05.2023;03:00;92,3;<7;<10;27;10,6;3,9;299
16.05.2023;04:00;92,9;<7;14;27;10,3;3,8;323
16.05.2023;05:00;92,6;<7;<10;25;9,2;4,6;328
16.05.2023;06:00;90,6;<7;11;24;8,8;4,5;335
16.05.2023;07:00;86,2;<7;13;24;8,8;4,8;331
16.05.2023;08:00;79,2;<7;12;23;9,5;4,3;340
16.05.2023;09:00;64,1;<7;<10;22;11,8;4,2;1
16.05.2023;10:00;58,8;<7;<10;20;11,4;4,6;344
16.05.2023;11:00;52,7;<7;<10;19;13,2;4,5;330
16.05.2023;12:00;47,7;<7;<10;18;13,5;4,7;342
16.05.2023;13:00;42,8;<7;<10;17;14,5;4,8;345
16.05.2023;14:00;44,7;<7;<10;16;14,8;4,5;345
16.05.2023;15:00;45,7;<7;<10;15;14,8;4,5;350
16.05.2023;16:00;42,1;<7;<10;14;15,4;4,4;341
16.05.2023;17:00;40,2;;;13;15,4;4,7;336
16.05.2023;18:00;43,5;<7;<10;12;14,8;5,1;339
16.05.2023;19:00;48,8;<7;<10;12;13,8;4,7;344
16.05.2023;20:00;52,9;<7;13;11;13,0;4,1;339
16.05.2023;21:00;56,9;<7;11;<10;12,4;3,5;339
16.05.2023;22:00;58,5;<7;13;<10;12,2;3,1;337
16.05.2023;23:00;63,7;<7;15;<10;11,5;2,2;344
16.05.2023;24:00;69,2;<7;17;<10;10,8;1,3;342
17.05.2023;01:00;75,2;<7;21;<10;9,9;1,2;327
17.05.2023;02:00;79,3;<7;16;<10;9,1;1,2;282
17.05.2023;03:00;83,1;<7;14;<10;8,3;1,8;279
17.05.2023;04:00;83,8;<7;<10;<10;8,2;1,8;282
17.05.2023;05:00;85,4;<7;15;<10;8,0;1,8;283
17.05.2023;06:00;87,5;9;25;<10;7,7;2,0;296
17.05.2023;07:00;86,4;12;23;<10;8,6;2,3;303
17.05.2023;08:00;86,8;9;23;<10;9,2;2,4;307
17.05.2023;09:00;76,5;7;20;10;10,6;2,3;337
17.05.2023;10:00;56,6;<7;13;11;12,8;4,1;344
17.05.2023;11:00;44,8;<7;<10;11;14,0;3,7;358
17.05.2023;12:00;43,3;<7;<10;11;14,4;3,5;339
17.05.2023;13:00;40,0;<7;<10;11;15,3;3,3;342
17.05.2023;14:00;38,8;<7;<10;11;15,9;3,8;343
17.05.2023;15:00;37,1;<7;<10;11;16,5;3,8;336
17.05.2023;16:00;35,7;<7;<10;11;16,6;4,3;337
17.05.2023;17:00;34,9;<7;11;11;16,9;3,6;329
17.05.2023;18:00;34,8;;;12;16,9;3,6;336
17.05.2023;19:00;37,2;<7;12;12;16,2;3,6;349
17.05.2023;20:00;41,2;<7;14;12;14,7;2,7;35
17.05.2023;21:00;47,7;<7;16;12;12,9;2,6;35
17.05.2023;22:00;53,9;<7;24;12;11,5;2,0;38
17.05.2023;23:00;59,7;<7;27;13;10,3;1,2;43
17.05.2023;24:00;68,4;<7;24;13;8,5;0,6;
18.05.2023;01:00;77,7;<7;35;13;7,4;0,6;
18.05.2023;02:00;82,5;<7;42;13;6,6;0,8;86
18.05.2023;03:00;84,2;<7;25;14;6,1;1,1;57
18.05.2023;04:00;83,6;<7;16;14;5,5;1,4;41
18.05.2023;05:00;88,5;<7;33;14;4,6;0,4;
18.05.2023;06:00;87,5;<7;25;14;5,0;0,5;
18.05.2023;07:00;74,4;<7;22;13;7,3;0,9;37
18.05.2023;08:00;61,9;<7;<10;13;9,4;1,2;46
18.05.2023;09:00;55,8;<7;<10;12;11,1;1,7;66
18.05.2023;10:00;51,1;<7;<10;12;12,8;1,5;47
18.05.2023;11:00;47,0;<7;<10;12;14,4;1,6;26
18.05.2023;12:00;41,7;<7;<10;12;15,6;1,8;357
18.05.2023;13:00;38,8;<7;<10;12;16,8;2,1;1
18.05.2023;14:00;36,1;<7;<10;12;17,6;2,1;333
18.05.2023;15:00;33,6;<7;<10;12;18,6;2,0;28
18.05.2023;16:00;30,9;<7;<10;12;19,7;2,3;13
18.05.2023;17:00;30,5;<7;<10;12;20,0;2,3;46
18.05.2023;18:00;33,4;<7;<10;12;19,9;2,0;12
18.05.2023;19:00;40,6;;;12;18,8;;
18.05.2023;20:00;45,2;<7;<10;12;16,8;;
18.05.2023;21:00;49,9;<7;13;12;15,1;2,5;32
18.05.2023;22:00;52,5;<7;12;12;14,1;2,3;52
18.05.2023;23:00;61,2;<7;18;12;12,2;0,8;76
18.05.2023;24:00;73,4;<7;30;12;10,4;0,9;67
19.05.2023;01:00;80,2;<7;38;12;9,3;0,8;28
19.05.2023;02:00;83,6;<7;40;12;8,3;0,7;
19.05.2023;03:00;86,6;<7;37;12;7,5;0,5;
19.05.2023;04:00;87,7;<7;31;12;6,9;0,3;
19.05.2023;05:00;89,5;23;35;12;6,3;0,3;
19.05.2023;06:00;88,2;43;35;12;6,8;0,0;
19.05.2023;07:00;73,3;21;34;12;9,4;0,7;
19.05.2023;08:00;61,2;<7;19;12;11,8;1,3;59
19.05.2023;09:00;54,4;<7;11;12;13,9;1,4;77
19.05.2023;10:00;48,5;<7;<10;12;15,7;1,5;44
19.05.2023;11:00;42,6;<7;<10;12;17,6;1,6;22
19.05.2023;12:00;39,6;<7;<10;12;18,8;1,7;22
19.05.2023;13:00;35,2;<7;<10;12;19,8;2,1;34
19.05.2023;14:00;30,5;<7;<10;12;20,7;2,3;55
19.05.2023;15:00;29,2;<7;<10;12;21,5;2,8;38
19.05.2023;16:00;27,4;<7;<10;12;22,4;2,4;64
19.05.2023;17:00;27,0;<7;<10;12;22,4;2,6;46
19.05.2023;18:00;29,8;<7;<10;11;21,7;3,1;57
19.05.2023;19:00;34,8;<7;<10;11;20,3;3,0;56
19.05.2023;20:00;36,5;;;11;20,1;2,5;60
19.05.2023;21:00;40,4;<7;<10;11;18,7;3,3;61
19.05.2023;22:00;46,2;<7;11;11;16,9;2,1;51
19.05.2023;23:00;52,9;<7;16;11;15,1;2,0;47
19.05.2023;24:00;55,9;<7;18;11;14,2;1,4;67
20.05.2023;01:00;67,3;<7;23;10;12,2;0,9;350
20.05.2023;02:00;73,5;<7;22;10;11,3;0,8;326
20.05.2023;03:00;78,9;<7;22;10;10,2;1,2;303
20.05.2023;04:00;80,2;<7;24;10;9,8;1,4;299
20.05.2023;05:00;81,1;<7;18;<10;9,4;1,0;290
20.05.2023;06:00;82,0;<7;26;<10;9,5;1,1;306
20.05.2023;07:00;73,8;12;27;<10;11,5;1,2;311
20.05.2023;08:00;67,6;<7;15;<10;13,1;1,1;339
20.05.2023;09:00;62,7;<7;13;<10;14,8;1,0;
20.05.2023;10:00;58,6;<7;<10;<10;16,6;1,2;340
20.05.2023;11:00;52,8;<7;<10;<10;18,8;2,3;63
20.05.2023;12:00;51,4;<7;<10;<10;19,2;3,7;74
20.05.2023;13:00;51,3;<7;<10;<10;19,7;3,4;55
20.05.2023;14:00;50,6;<7;<10;<10;20,0;4,0;55
20.05.2023;15:00;49,8;<7;<10;<10;20,3;3,9;54
20.05.2023;16:00;50,3;<7;<10;<10;19,9;3,8;57
20.05.2023;17:00;51,5;<7;<10;10;19,5;3,5;43
20.05.2023;18:00;52,0;<7;<10;10;19,0;3,0;50
20.05.2023;19:00;54,4;<7;<10;10;18,7;2,7;35
20.05.2023;20:00;57,9;<7;<10;10;18,0;2,2;28
20.05.2023;21:00;64,5;;;11;16,6;;
20.05.2023;22:00;71,6;<7;23;11;15,2;1,5;340
20.05.2023;23:00;77,4;<7;29;12;14,0;1,1;327
20.05.2023;24:00;79,1;14;33;12;13,7;1,6;331
21.05.2023;01:00;79,7;9;24;12;13,6;1,8;338
21.05.2023;02:00;80,0;<7;25;13;13,6;1,4;331
21.05.2023;03:00;81,7;<7;23;13;13,3;1,1;301
21.05.2023;04:00;83,9;<7;18;13;12,9;1,1;259
21.05.2023;05:00;86,2;<7;23;14;12,5;1,0;246
21.05.2023;06:00;84,6;<7;17;14;12,9;1,5;265
21.05.2023;07:00;82,9;<7;13;15;13,3;1,5;274
21.05.2023;08:00;79,5;<7;14;15;14,2;1,4;280
21.05.2023;09:00;72,4;<7;14;15;16,0;2,0;296
21.05.2023;10:00;68,8;<7;18;16;17,4;2,6;295
21.05.2023;11:00;63,1;<7;16;16;19,3;2,3;321
21.05.2023;12:00;58,1;<7;19;17;21,1;2,3;333
21.05.2023;13:00;54,1;<7;12;17;22,7;2,0;347
21.05.2023;14:00;50,9;<7;11;18;23,6;2,4;325
21.05.2023;15:00;48,6;<7;12;18;24,8;2,7;319
21.05.2023;16:00;47,6;<7;13;18;25,6;2,9;313
21.05.2023;17:00;47,6;<7;15;19;26,1;3,1;317
21.05.2023;18:00;54,4;<7;12;19;23,7;3,1;331
21.05.2023;19:00;58,0;<7;19;19;22,4;2,0;308
21.05.2023;20:00;65,4;<7;24;19;21,7;1,8;288
21.05.2023;21:00;72,9;<7;28;19;20,8;1,9;301
21.05.2023;22:00;76,4;;;20;20,0;1,6;287
21.05.2023;23:00;75,7;<7;19;20;19,3;1,8;271
21.05.2023;24:00;78,2;<7;18;20;18,6;1,7;278
22.05.2023;01:00;84,8;<7;16;20;17,6;1,2;272
22.05.2023;02:00;90,2;<7;26;21;16,3;0,8;224
22.05.2023;03:00;88,9;<7;18;21;16,5;1,3;224
22.05.2023;04:00;90,5;<7;18;21;16,0;1,4;223
22.05.2023;05:00;91,7;<7;21;22;15,5;1,4;222
22.05.2023;06:00;90,8;<7;25;22;15,5;1,4;268
22.05.2023;07:00;87,6;8;28;23;16,3;2,1;278
22.05.2023;08:00;84,5;<7;19;24;17,1;2,8;283
22.05.2023;09:00;83,6;<7;19;25;17,4;2,1;277
22.05.2023;10:00;77,8;<7;23;26;18,9;1,7;309
22.05.2023;11:00;72,0;8;25;27;20,4;2,6;312
22.05.2023;12:00;71,0;7;21;28;20,5;3,9;302
22.05.2023;13:00;68,5;8;25;29;20,8;3,6;314
22.05.2023;14:00;65,5;9;28;30;21,8;3,5;321
22.05.2023;15:00;61,7;<7;24;31;22,8;3,4;316
22.05.2023;16:00;59,3;<7;20;32;23,5;3,3;306
22.05.2023;17:00;59,7;<7;17;33;23,3;4,4;296
22.05.2023;18:00;62,6;<7;16;35;22,6;4,1;284
22.05.2023;19:00;66,1;<7;16;36;21,9;3,9;283
22.05.2023;20:00;68,8;<7;15;38;21,2;3,7;279
22.05.2023;21:00;70,8;<7;18;39;20,2;3,6;294
22.05.2023;22:00;72,3;<7;31;39;19,6;2,4;312
22.05.2023;23:00;74,4;;;39;19,1;2,6;300
22.05.2023;24:00;77,5;<7;10;39;17,7;2,6;292
23.05.2023;01:00;79,3;<7;11;38;16,7;3,0;294
23.05.2023;02:00;80,5;<7;15;38;15,9;3,6;307
23.05.2023;03:00;81,7;<7;12;37;15,3;2,8;297
23.05.2023;04:00;79,2;<7;13;37;15,5;3,8;307
23.05.2023;05:00;76,1;<7;13;36;15,5;3,7;300
23.05.2023;06:00;85,3;<7;13;35;14,6;3,2;284
23.05.2023;07:00;85,0;<7;17;34;14,6;3,5;294
23.05.2023;08:00;82,3;<7;18;33;14,9;3,6;298
23.05.2023;09:00;80,0;<7;19;32;15,1;4,0;311
23.05.2023;10:00;76,4;<7;18;31;15,5;4,9;321
23.05.2023;11:00;77,2;<7;18;29;15,2;4,8;318
23.05.2023;12:00;79,9;<7;18;28;14,6;4,3;314
23.05.2023;13:00;69,9;<7;13;26;15,9;5,3;325
23.05.2023;14:00;63,7;<7;12;25;16,2;4,8;334
23.05.2023;15:00;60,5;<7;13;24;16,3;3,9;341
23.05.2023;16:00;53,0;<7;12;23;17,2;4,0;340
23.05.2023;17:00;46,5;<7;13;22;17,5;4,3;331
23.05.2023;18:00;49,0;<7;14;21;16,7;3,5;341
23.05.2023;19:00;49,6;<7;12;20;16,2;3,5;346
23.05.2023;20:00;52,9;<7;12;19;15,3;4,0;342
23.05.2023;21:00;55,3;<7;12;18;14,1;3,5;339
23.05.2023;22:00;55,8;<7;12;17;13,6;3,9;343
23.05.2023;23:00;59,9;<7;<10;17;12,3;3,3;343
23.05.2023;24:00;62,3;;;17;11,4;2,9;339
24.05.2023;01:00;66,8;<7;15;17;10,4;2,7;340
24.05.2023;02:00;69,1;<7;13;17;9,5;2,2;345
24.05.2023;03:00;71,8;<7;16;16;8,7;1,7;339
24.05.2023;04:00;78,4;<7;25;16;7,4;1,1;320
24.05.2023;05:00;79,7;<7;23;17;7,2;1,2;281
24.05.2023;06:00;78,9;<7;27;17;7,5;1,4;281
24.05.2023;07:00;76,1;15;27;17;9,0;1,8;340
24.05.2023;08:00;68,9;10;24;17;10,9;2,1;338
24.05.2023;09:00;63,4;<7;18;17;11,8;2,9;347
24.05.2023;10:00;56,0;<7;13;17;12,9;3,3;333
24.05.2023;11:00;55,9;<7;13;17;13,0;2,6;356
24.05.2023;12:00;50,0;<7;11;17;14,5;2,8;352
24.05.2023;13:00;50,5;<7;15;18;14,8;2,7;342
24.05.2023;14:00;52,6;<7;18;18;14,1;2,7;353
24.05.2023;15:00;50,3;<7;15;18;14,9;2,6;347
24.05.2023;16:00;48,6;<7;11;17;15,4;2,7;359
24.05.2023;17:00;48,1;<7;<10;17;15,8;3,0;2
24.05.2023;18:00;50,9;<7;12;17;15,4;2,6;23
24.05.2023;19:00;54,3;<7;13;16;14,8;2,6;36
24.05.2023;20:00;57,6;<7;12;16;14,3;2,1;55
24.05.2023;21:00;62,1;<7;21;16;13,5;1,9;50
24.05.2023;22:00;66,0;<7;26;16;12,8;1,4;49
24.05.2023;23:00;75,7;<7;29;16;10,9;1,1;38
24.05.2023;24:00;82,2;<7;40;16;9,7;0,3;
25.05.2023;01:00;86,5;;;16;8,9;0,7;
25.05.2023;02:00;88,8;<7;26;17;8,3;1,3;2
25.05.2023;03:00;92,1;<7;27;17;7,5;0,8;58
25.05.2023;04:00;93,7;<7;30;17;7,0;0,8;86
25.05.2023;05:00;93,9;15;31;17;6,6;0,8;360
25.05.2023;06:00;91,6;32;30;17;7,3;0,3;
25.05.2023;07:00;82,4;24;30;17;9,6;0,5;
25.05.2023;08:00;70,0;7;20;17;12,3;1,3;62
25.05.2023;09:00;65,3;<7;11;17;13,8;1,4;48
25.05.2023;10:00;60,3;<7;11;17;15,4;2,0;21
25.05.2023;11:00;55,3;<7;12;18;16,9;2,0;348
25.05.2023;12:00;51,2;;;18;18,1;;
25.05.2023;13:00;45,4;;;17;19,6;3,4;332
25.05.2023;14:00;45,9;;;17;19,9;4,5;343
25.05.2023;15:00;48,3;<7;<10;17;19,1;5,2;345
25.05.2023;16:00;46,8;<7;<10;17;19,2;3,9;358
25.05.2023;17:00;44,6;<7;<10;17;19,6;3,3;344
25.05.2023;18:00;44,8;<7;<10;17;19,3;3,9;348
25.05.2023;19:00;47,9;<7;<10;17;18,4;3,9;351
25.05.2023;20:00;53,9;<7;12;17;16,8;3,4;7
25.05.2023;21:00;58,3;<7;<10;17;15,4;2,5;7
25.05.2023;22:00;62,9;<7;16;17;14,3;2,0;12
25.05.2023;23:00;68,4;<7;17;17;13,2;1,3;355
25.05.2023;24:00;76,9;<7;22;17;11,6;0,6;341
26.05.2023;01:00;84,6;<7;35;17;10,5;1,0;355
26.05.2023;02:00;87,1;<7;39;17;10,0;0,6;
26.05.2023;03:00;88,7;<7;40;17;9,3;1,0;336
26.05.2023;04:00;86,8;<7;23;17;9,0;1,2;359
26.05.2023;05:00;85,1;<7;25;17;8,7;1,5;337
26.05.2023;06:00;82,0;<7;17;17;9,3;1,9;344
26.05.2023;07:00;78,2;<7;18;17;10,3;2,0;351
26.05.2023;08:00;72,0;8;15;17;11,5;1,6;320
26.05.2023;09:00;66,9;7;13;17;13,2;2,1;330
26.05.2023;10:00;62,8;<7;12;17;14,8;2,3;318
26.05.2023;11:00;58,2;<7;<10;17;16,7;3,1;327
26.05.2023;12:00;53,5;<7;<10;17;18,4;2,8;335
26.05.2023;13:00;50,7;<7;<10;18;19,3;3,4;323
26.05.2023;14:00;46,4;<7;<10;18;20,3;3,2;357
26.05.2023;15:00;43,7;;;18;21,0;3,1;0
26.05.2023;16:00;41,9;<7;<10;18;21,6;4,0;2
26.05.2023;17:00;39,2;<7;<10;19;21,7;4,2;14
26.05.2023;18:00;38,6;<7;<10;19;21,0;4,7;8
26.05.2023;19:00;36,4;<7;<10;19;20,3;3,2;22
26.05.2023;20:00;36,6;<7;<10;19;18,3;3,3;16
26.05.2023;21:00;41,8;<7;10;19;16,6;2,5;12
26.05.2023;22:00;48,3;<7;13;19;15,2;;
26.05.2023;23:00;56,1;<7;17;19;14,1;1,8;3
26.05.2023;24:00;66,6;<7;24;19;12,2;1,1;346
27.05.2023;01:00;72,8;<7;49;19;11,0;0,9;
27.05.2023;02:00;79,3;<7;22;19;9,9;1,5;1
27.05.2023;03:00;83,0;<7;12;19;9,2;1,1;9
27.05.2023;04:00;86,4;<7;22;19;8,5;0,6;
27.05.2023;05:00;89,1;<7;37;19;7,8;0,8;49
27.05.2023;06:00;85,7;<7;23;19;8,3;0,5;
27.05.2023;07:00;77,4;<7;20;19;10,0;0,8;36
27.05.2023;08:00;64,3;<7;11;19;12,9;1,3;68
27.05.2023;09:00;57,4;<7;<10;18;15,0;1,4;66
27.05.2023;10:00;49,9;<7;<10;18;17,4;1,7;90
27.05.2023;11:00;43,6;<7;<10;18;19,5;1,7;56
27.05.2023;12:00;35,6;<7;<10;17;21,4;2,7;62
27.05.2023;13:00;27,7;<7;<10;17;22,7;2,9;79
27.05.2023;14:00;25,4;<7;<10;16;23,8;3,0;111
27.05.2023;15:00;23,2;<7;<10;16;24,6;2,7;81
27.05.2023;16:00;21,9;;;16;25,6;1,9;82
27.05.2023;17:00;20,2;<7;<10;15;26,0;2,2;90
27.05.2023;18:00;20,5;<7;<10;15;26,0;2,0;111
27.05.2023;19:00;18,9;<7;<10;14;26,0;2,0;114
27.05.2023;20:00;23,6;<7;14;14;23,8;1,6;91
27.05.2023;21:00;36,6;<7;51;14;20,5;1,2;106
27.05.2023;22:00;50,3;<7;69;15;17,0;1,2;68
27.05.2023;23:00;56,5;10;87;15;15,3;0,3;
27.05.2023;24:00;64,8;16;76;16;13,7;0,7;199
28.05.2023;01:00;72,1;17;65;16;12,4;0,5;
28.05.2023;02:00;76,8;12;57;16;11,3;0,2;
28.05.2023;03:00;80,7;10;52;16;10,5;0,4;
28.05.2023;04:00;84,3;10;45;16;9,7;0,1;
28.05.2023;05:00;86,2;8;41;15;9,3;1,2;120
28.05.2023;06:00;82,6;12;41;15;10,6;1,4;120
28.05.2023;07:00;72,4;12;35;15;12,9;0,8;125
28.05.2023;08:00;61,8;7;23;15;15,2;1,0;52
28.05.2023;09:00;51,8;<7;11;15;17,9;0,9;
28.05.2023;10:00;45,6;<7;12;15;19,6;1,4;330
28.05.2023;11:00;42,5;<7;<10;15;21,1;1,8;342
28.05.2023;12:00;36,4;<7;<10;15;22,9;1,3;41
28.05.2023;13:00;28,7;<7;<10;15;24,4;1,7;337
28.05.2023;14:00;28,5;<7;<10;14;25,6;1,9;350
28.05.2023;15:00;24,7;<7;<10;14;26,5;2,1;349
28.05.2023;16:00;27,0;<7;<10;14;26,6;3,0;343
28.05.2023;17:00;29,6;;;14;26,2;3,7;336
28.05.2023;18:00;34,2;<7;11;15;25,0;3,4;353
28.05.2023;19:00;34,2;<7;<10;15;24,0;3,5;2
28.05.2023;20:00;38,4;<7;<10;15;22,5;3,3;3
28.05.2023;21:00;44,5;<7;10;14;21,2;2,8;350
28.05.2023;22:00;49,0;<7;20;14;19,9;2,1;349
28.05.2023;23:00;54,5;<7;30;13;18,5;2,0;342
28.05.2023;24:00;61,5;<7;26;13;17,0;1,6;342
29.05.2023;01:00;62,6;<7;13;13;16,5;2,2;344
29.05.2023;02:00;67,7;<7;14;13;15,5;2,0;337
29.05.2023;03:00;71,6;<7;<10;13;14,8;2,3;339
29.05.2023;04:00;73,7;<7;<10;13;14,0;3,3;341
29.05.2023;05:00;74,6;<7;<10;12;12,9;3,3;346
29.05.2023;06:00;74,9;<7;11;12;12,6;2,6;330
29.05.2023;07:00;71,9;<7;<10;12;13,2;3,0;331
29.05.2023;08:00;66,3;<7;<10;12;14,7;2,4;335
29.05.2023;09:00;62,1;<7;<10;12;15,9;2,3;342
29.05.2023;10:00;56,8;<7;11;12;17,6;2,2;330
29.05.2023;11:00;52,0;<7;<10;12;19,2;2,9;337
29.05.2023;12:00;48,3;<7;<10;12;20,8;3,1;330
29.05.2023;13:00;46,7;<7;<10;12;21,8;4,2;324
29.05.2023;14:00;45,1;<7;<10;12;22,6;4,3;334
29.05.2023;15:00;43,1;<7;<10;13;23,0;4,5;348
29.05.2023;16:00;41,8;<7;<10;13;22,9;4,5;355
29.05.2023;17:00;41,0;<7;<10;13;22,8;4,7;354
29.05.2023;18:00;40,9;;;13;22,5;4,4;9
29.05.2023;19:00;43,4;<7;<10;13;21,3;;
29.05.2023;20:00;46,2;<7;<10;13;19,8;3,9;9
29.05.2023;21:00;46,8;<7;<10;13;18,4;3,7;11
29.05.2023;22:00;42,3;<7;<10;13;17,2;;
29.05.2023;23:00;43,9;<7;<10;13;16,0;;
29.05.2023;24:00;45,2;<7;<10;12;15,0;;
30.05.2023;01:00;46,4;<7;12;12;14,0;;
30.05.2023;02:00;49,1;<7;<10;12;12,9;2,3;357
30.05.2023;03:00;49,4;<7;<10;12;11,8;2,7;344
30.05.2023;04:00;49,6;<7;<10;12;11,0;2,5;341
30.05.2023;05:00;56,0;<7;11;12;10,3;2,3;333
30.05.2023;06:00;60,0;<7;19;12;10,4;2,2;328
30.05.2023;07:00;61,2;<7;15;12;11,2;2,5;338
30.05.2023;08:00;59,1;<7;13;12;12,5;2,2;343
30.05.2023;09:00;54,6;<7;11;12;14,3;2,1;350
30.05.2023;10:00;51,2;<7;12;13;15,7;2,6;330
30.05.2023;11:00;47,9;<7;11;13;17,3;2,6;341
30.05.2023;12:00;45,5;<7;<10;13;19,1;2,8;335
30.05.2023;13:00;42,2;<7;<10;13;20,4;3,5;336
30.05.2023;14:00;35,8;<7;<10;14;21,5;3,8;331
30.05.2023;15:00;31,5;<7;<10;14;22,6;3,2;3
30.05.2023;16:00;31,8;<7;<10;14;23,0;3,8;1
30.05.2023;17:00;33,1;<7;<10;14;23,1;4,0;354
30.05.2023;18:00;34,9;<7;<10;14;23,2;4,0;10
30.05.2023;19:00;38,7;;;14;22,5;3,7;15
30.05.2023;20:00;43,9;<7;<10;14;20,9;3,0;23
30.05.2023;21:00;49,0;<7;11;14;19,3;2,7;31
30.05.2023;22:00;57,4;<7;<10;14;17,8;4,0;45
30.05.2023;23:00;64,5;<7;<10;15;16,5;2,6;48
30.05.2023;24:00;69,0;<7;<10;15;15,5;1,4;25
31.05.2023;01:00;73,9;<7;18;15;14,4;0,6;
31.05.2023;02:00;80,8;<7;20;15;13,1;0,9;345
31.05.2023;03:00;85,4;<7;17;15;12,2;0,5;
31.05.2023;04:00;88,1;<7;18;15;11,4;0,9;357
31.05.2023;05:00;90,3;<7;21;15;11,0;1,0;10
31.05.2023;06:00;86,5;<7;26;15;12,1;0,4;
31.05.2023;07:00;74,5;8;25;15;14,4;0,6;
31.05.2023;08:00;61,8;<7;17;15;16,9;1,6;53
31.05.2023;09:00;54,6;<7;13;15;19,1;1,7;38
31.05.2023;10:00;44,3;<7;10;15;21,4;1,8;44
31.05.2023;11:00;31,3;<7;<10;15;23,8;4,2;75
31.05.2023;12:00;29,8;<7;<10;15;24,5;3,3;82
31.05.2023;13:00;26,8;<7;<10;15;25,7;3,2;60
31.05.2023;14:00;25,3;<7;<10;14;26,8;3,3;55
31.05.2023;15:00;25,3;<7;<10;14;27,3;2,8;57
31.05.2023;16:00;24,2;<7;<10;14;27,9;3,4;49
31.05.2023;17:00;25,0;<7;<10;14;28,3;3,6;39
31.05.2023;18:00;26,6;<7;<10;13;27,9;3,3;41
31.05.2023;19:00;32,4;<7;<10;13;26,0;4,6;29
31.05.2023;20:00;39,3;;;13;23,8;3,3;29
31.05.2023;21:00;44,0;<7;11;13;22,3;2,7;33
31.05.2023;22:00;49,3;<7;11;13;20,8;2,5;35
31.05.2023;23:00;54,3;<7;12;13;19,4;1,9;47
31.05.2023;24:00;59,7;<7;22;13;17,8;1,1;88
01.06.2023;01:00;67,7;<7;25;13;16,1;0,4;
01.06.2023;02:00;72,9;<7;23;13;15,0;1,6;312
01.06.2023;03:00;75,6;<7;20;13;14,1;1,3;295
01.06.2023;04:00;77,1;<7;17;13;13,6;1,1;274
01.06.2023;05:00;79,7;<7;25;13;13,0;1,2;243
01.06.2023;06:00;78,4;<7;27;13;13,4;1,5;251
01.06.2023;07:00;76,5;11;29;14;14,7;2,3;279
01.06.2023;08:00;70,5;12;27;14;16,4;2,7;277
01.06.2023;09:00;65,4;;;15;17,4;3,4;293
01.06.2023;10:00;62,5;;;15;17,8;3,6;304
01.06.2023;11:00;58,9;14;26;15;18,4;3,6;312
01.06.2023;12:00;51,9;10;23;15;19,5;3,4;308
01.06.2023;13:00;43,1;8;25;16;21,0;3,8;323
01.06.2023;14:00;39,8;<7;23;17;22,4;3,3;329
01.06.2023;15:00;35,9;<7;17;18;23,1;3,9;346
01.06.2023;16:00;33,5;<7;17;18;23,7;4,2;344
01.06.2023;17:00;34,2;<7;16;19;23,7;3,9;339
01.06.2023;18:00;37,3;<7;16;19;22,8;4,5;334
01.06.2023;19:00;44,0;<7;15;19;20,7;4,0;342
01.06.2023;20:00;48,8;<7;14;19;19,6;3,3;3
01.06.2023;21:00;53,5;<7;12;20;18,0;2,3;5
01.06.2023;22:00;63,6;<7;18;20;16,5;2,7;350
01.06.2023;23:00;70,1;<7;12;20;15,1;;
01.06.2023;24:00;70,5;<7;<10;20;14,1;2,7;346
02.06.2023;01:00;71,3;<7;<10;20;13,6;3,1;360
02.06.2023;02:00;69,1;<7;<10;20;13,2;3,0;15
02.06.2023;03:00;67,5;<7;<10;20;12,8;3,0;14
02.06.2023;04:00;67,4;<7;<10;20;12,5;2,6;356
02.06.2023;05:00;65,7;<7;<10;20;12,3;3,1;338
02.06.2023;06:00;65,2;<7;<10;20;12,0;3,1;345
02.06.2023;07:00;64,6;<7;12;19;11,8;2,8;344
02.06.2023;08:00;62,0;<7;<10;19;11,8;2,6;1
02.06.2023;09:00;60,2;<7;<10;19;12,4;2,1;32
02.06.2023;10:00;55,6;<7;<10;19;13,6;2,4;345
02.06.2023;11:00;50,3;;;19;15,2;2,9;2
02.06.2023;12:00;47,3;<7;<10;19;16,5;2,7;338
02.06.2023;13:00;44,1;<7;<10;19;17,8;2,8;348
02.06.2023;14:00;41,4;<7;<10;18;19,0;2,6;357
02.06.2023;15:00;38,3;<7;<10;18;19,8;2,5;348
02.06.2023;16:00;35,8;<7;<10;18;21,2;2,3;325
02.06.2023;17:00;35,1;<7;<10;18;22,0;2,6;332
02.06.2023;18:00;40,0;<7;<10;17;22,0;3,9;350
02.06.2023;19:00;40,9;<7;<10;18;21,4;3,7;25
02.06.2023;20:00;45,1;<7;<10;18;19,5;3,6;30
02.06.2023;21:00;49,3;<7;13;18;17,9;2,2;18